ROMMA est une association bénévole à but non lucratif. Votre soutien est indispensable : ADHERER à ROMMA ou FAIRE un DON

Pinsot - (38, Isère)

Vallée du Haut Bréda (750 m)   Longitude: 06° 06' E   Latitude: 45° 21' N Station partenaire n°101
 

Détail journalier du     <<     >>

Température Precipitation Humidité Pression Vent Dir Rafale Dir. rafale Ensol.
Heure (°C) (mm) (%) (hPa) (km/h) (km/h) (min)
01:00 -5.1089102808SSO0
02:00 -4.3089102803SSO0
03:00 -4.409010281SSO6SSO0
04:00 -4.8090102706SSO0
05:00 -5.309110281SSO10S0
06:00 -5.409210272SSO8SSO0
07:00 -5.809210273SSO8SSO0
08:00 -5.609310283SSO10SSO0
09:00 -5.309310283SSO10SSO0
10:00 -4.709210294SSO10SSO0
11:00 -4.109110285SSO11S0
12:00 -0.608910281SSO10SSO13
13:00 1.80.274102706ESE53
14:00 1.30.47110272N13N7
15:00 1.4070102605N0
16:00 1.80.277102603N0
17:00 1.40.284102702NNE0
18:00 0.9088102702NNE0
19:00 0.60901027000
20:00 0.40921027000
21:00 0.60911026000
22:00 1.008810261SSO11SSO0
23:00 1.208710242SSO11SSO0
minuit 0.908810251SSO11E0

Graphique du 12-01-2019

 

Serveur OMMA